Other Public Products
Issued by NWS Charleston, SC

Home | Current Version | Previous Version | Text Only | Print | Product List | Glossary On
Versions: 1 2 3 4 5 6 7 8 9 10 11 12 13 14 15 16 17 18 19 20 21 22 23 24 25 26 27 28 29 30 31 32 33 34 35 36 37 38 39 40 41 42 43 44 45 46 47 48 49 50
560
FPUS82 KCHS 051527
OPUCHS

TEST...KCHS/KSAV Gateway Observations...TEST
National Weather Service Charleston SC
1000 AM EST MON DEC 05 2016

NOTE: "fair" indicates few or no clouds below 12,000 feet with no
significant weather and/or obstructions to visibility.

SCZ050-WAZ558-NCZ071-TXZ119-213-PAZ071-DCZ001-FLZ074-172-MI076-
NYZ176-178-MAZ016-IL014-TNZ027-NJZ106-GAZ044-MD014-051600-
...Gateway Observations for Charleston International...

CITY           SKY/WX    TMP DP  RH WIND       PRES   REMARKS
Chas Airport   CLOUDY    54  50  87 N6        30.03R FOG
Seattle        LGT SNOW  34  33  96 S16       30.07F FOG     WCI  24
Charlotte      PTSUNNY   48  43  82 N5        30.03R
Dallas DFW     CLOUDY    49  42  77 E9        29.90F
Dallas Love    CLOUDY    49  44  83 E8        29.91F
Philladelphia  CLOUDY    44  40  85 W12       30.04R
Wash National  MOSUNNY   47  42  83 VRB3      30.04S
Baltimore      MOSUNNY   45  42  89 NW7       30.02S
Miami          PTSUNNY   80  72  76 SE16G26   30.05R
Detroit        PTSUNNY   38  32  79 SW9       30.05R WCI  31
Newark         CLOUDY    42  39  89 W12       30.01R
Laguardia      CLOUDY    45  39  79 SW14G23   30.00R
J F K          PTSUNNY   45  40  82 SW15      30.02R
Boston Logan   LGT SNOW  34  34 100 S7        30.04F FOG     WCI  28
Ft. Lauderdale PTSUNNY   81  72  74 SE18      30.03S
Chicago O`Hare CLOUDY    32  31  96 S8        30.02R FOG     WCI  25
Chicago Midway CLOUDY    33  30  88 S10       30.04R FOG     WCI  25
Houston Bush   CLOUDY    51  50  96 N9        29.83F
Houston Hobby  LGT RAIN  53  52  96 E8        29.83S
Nashville      CLOUDY    43  40  89 NE10      30.07S FOG
Atlanta        CLOUDY    48  46  93 E5        30.02R FOG

$$

GAZ044-118-TXZ119-213-NCZ071-DCZ001-MDZ014-506-PAZ021-071-NJZ106-
NYZ176-178-MAZ106-OHZ011-021-055-MIZ076-KYZ091-ILZ014-INZ047-
MNZ060-051600-
...Gateway Observations for Savannah International...

CITY           SKY/WX    TMP DP  RH WIND       PRES   REMARKS
Savannah Arpt  CLOUDY    56  53  90 N7        30.02R FOG
Atlanta        CLOUDY    48  46  93 E5        30.02R FOG
Charlotte      PTSUNNY   48  43  82 N5        30.03R
Dallas DFW     CLOUDY    49  42  77 E9        29.90F
Houston Bush   CLOUDY    51  50  96 N9        29.83F
Wash National  MOSUNNY   47  42  83 VRB3      30.04S
Wash Dulles    CLOUDY    42  39  89 CALM      30.03R
Baltimore      MOSUNNY   45  42  89 NW7       30.02S
Philadelphia   CLOUDY    44  40  85 W12       30.04R
Newark         CLOUDY    42  39  89 W12       30.01R
Laguardia      CLOUDY    45  39  79 SW14G23   30.00R
J F K          PTSUNNY   45  40  82 SW15      30.02R
Boston         LGT SNOW  34  34 100 S7        30.04F FOG     WCI  28
Pittsburg      CLOUDY    39  32  76 NW14      30.08R WCI  31
Akron          CLOUDY    37  30  75 W6        30.07R WCI  32
Cleveland      CLOUDY    39  31  72 SW9       30.10R WCI  33
Cincinnati     CLOUDY    37  31  78 CALM      30.11R
Columbus       CLOUDY    37  29  74 CALM      30.13R
Detroit        PTSUNNY   38  32  79 SW9       30.05R WCI  31
Chicago O`Hare CLOUDY    32  31  96 S8        30.02R FOG     WCI  25
Minneapolis    CLOUDY    31  28  89 SE10      29.77S WCI  22
Indianapolis   CLOUDY    35  30  82 S6        30.10R WCI  30

$$




USA.gov is the U.S. government's official web portal to all federal, state and local government web resources and services.